Location: Hylvaty SDH
(49.9612°N, 16.4057°E)
Time: 01:51:36
(UTC+01:00)

Transit 4A - Pass Details

Date: 16 August 2020
Orbit: 864 x 981 km, 66.8° (Epoch: 15 January)

Event Time Altitude Azimuth Distance (km) Brightness Sun altitude
Rises 13:47:20 0° 309° (NW) 3,592 10.8 52.2°
Reaches altitude 10° 13:50:49 10° 329° (NNW) 2,671 10.2 52.0°
Maximum altitude 13:54:53 18° 10° (N) 2,191 9.7 51.8°
Drops below altitude 10° 13:59:01 10° 51° (NE) 2,714 10.1 51.5°
Sets 14:02:35 0° 70° (ENE) 3,674 10.7 51.3°
